sat.trackr.live / text

‹ back to catalog

STARLINK-2039

NORAD 47655 · 2021-012AM

PAYLOAD ACTIVE UNKNOWN

§ Identity

Operator
Country
US
Launch date
2021-02-16
Launch site
AFETR
Launch vehicle
Mass (kg)
RCS (m²)

Purposes: comms

External: N2YO · Heavens-Above · Gunter

§ Orbital elements

Epoch: 2026-09-19T11:52:00.324480Z

Period
93.77 min
Inclination
53.1578°
Eccentricity
0.0005796
Mean motion
15.35724781 rev/d
Perigee alt
454.8 km
Apogee alt
462.7 km
Semi-major
6,836.9 km
B*
1.1371e-3
RAAN
242.3167°
Arg perigee
56.1300°
Mean anomaly
304.0254°
Rev number
30,979

§ Raw data

STARLINK-20391 47655U 21012AM  26262.49444820  .00039925  00000+0  11371-2 0  99982 47655  53.1578 242.3167 0005796  56.1300 304.0254 15.35724781309794

JSON: /api/v1/satellites/47655 · /tle

For live sub-satellite position, see the globe view (requires WebGL).

§ Visibility from observer

Set your observer location to see the next 7 days of passes ≥ 10°. The values pass through the URL so the page stays shareable.

No JS? Fill the form by hand. The geolocation button needs JavaScript.